TimeCST,TemperatureF,Dew PointF,Humidity,Sea Level PressureIn,VisibilityMPH,Wind Direction,Wind SpeedMPH,Gust SpeedMPH,PrecipitationIn,Events,Conditions,WindDirDegrees,DateUTC
12:15 AM,24.8,19.4,80,30.16,10.0,NNW,3.5,-,N/A,,Clear,340,2013-01-16 06:15:00
12:35 AM,24.8,19.4,80,30.16,10.0,Calm,Calm,-,N/A,,Clear,0,2013-01-16 06:35:00
12:55 AM,23.0,19.4,86,30.16,10.0,Calm,Calm,-,N/A,,Clear,0,2013-01-16 06:55:00
1:15 AM,23.0,19.4,86,30.15,10.0,Calm,Calm,-,N/A,,Clear,0,2013-01-16 07:15:00
1:35 AM,19.4,19.4,100,30.16,10.0,NNW,3.5,-,N/A,,Clear,330,2013-01-16 07:35:00
1:55 AM,19.4,19.4,100,30.17,10.0,Calm,Calm,-,N/A,,Clear,0,2013-01-16 07:55:00
2:15 AM,19.4,19.4,100,30.16,10.0,NNW,3.5,-,N/A,,Clear,340,2013-01-16 08:15:00
2:35 AM,21.2,19.4,93,30.17,10.0,NNW,3.5,-,N/A,,Clear,340,2013-01-16 08:35:00
2:55 AM,21.2,19.4,93,30.16,10.0,Calm,Calm,-,N/A,,Clear,0,2013-01-16 08:55:00
3:15 AM,19.4,17.6,93,30.16,10.0,NNW,3.5,-,N/A,,Clear,340,2013-01-16 09:15:00
3:35 AM,19.4,19.4,100,30.15,10.0,NNW,3.5,-,N/A,,Clear,340,2013-01-16 09:35:00
3:55 AM,19.4,19.4,100,30.14,9.0,North,3.5,-,N/A,,Clear,350,2013-01-16 09:55:00
4:15 AM,19.4,19.4,100,30.14,9.0,Calm,Calm,-,N/A,,Clear,0,2013-01-16 10:15:00
4:35 AM,19.4,19.4,100,30.13,8.0,Calm,Calm,-,N/A,,Clear,0,2013-01-16 10:35:00
4:55 AM,19.4,17.6,93,30.12,8.0,Calm,Calm,-,N/A,,Clear,0,2013-01-16 10:55:00
5:15 AM,17.6,15.8,93,30.12,8.0,Calm,Calm,-,N/A,,Clear,0,2013-01-16 11:15:00
5:35 AM,15.8,15.8,100,30.11,9.0,Calm,Calm,-,N/A,,Clear,0,2013-01-16 11:35:00
5:55 AM,15.8,15.8,100,30.12,9.0,Calm,Calm,-,N/A,,Clear,0,2013-01-16 11:55:00
6:15 AM,17.6,15.8,93,30.13,8.0,Calm,Calm,-,N/A,,Clear,0,2013-01-16 12:15:00
6:35 AM,15.8,15.8,100,30.14,9.0,Calm,Calm,-,N/A,,Clear,0,2013-01-16 12:35:00
6:55 AM,17.6,15.8,93,30.14,9.0,Calm,Calm,-,N/A,,Clear,0,2013-01-16 12:55:00
7:15 AM,15.8,14.0,93,30.15,10.0,Calm,Calm,-,N/A,,Clear,0,2013-01-16 13:15:00
7:35 AM,15.8,14.0,93,30.15,9.0,NNW,3.5,-,N/A,,Clear,340,2013-01-16 13:35:00
7:55 AM,17.6,15.8,93,30.14,8.0,Calm,Calm,-,N/A,,Clear,0,2013-01-16 13:55:00
8:15 AM,17.6,15.8,93,30.15,8.0,Calm,Calm,-,N/A,,Clear,0,2013-01-16 14:15:00
8:35 AM,19.4,17.6,93,30.15,10.0,Calm,Calm,-,N/A,,Clear,0,2013-01-16 14:35:00
8:55 AM,21.2,17.6,86,30.14,9.0,Calm,Calm,-,N/A,,Clear,0,2013-01-16 14:55:00
9:15 AM,23.0,19.4,86,30.15,10.0,WSW,3.5,-,N/A,,Clear,240,2013-01-16 15:15:00
9:35 AM,24.8,17.6,74,30.14,10.0,Calm,Calm,-,N/A,,Clear,0,2013-01-16 15:35:00
9:55 AM,24.8,17.6,74,30.14,10.0,Calm,Calm,-,N/A,,Clear,0,2013-01-16 15:55:00
10:15 AM,26.6,19.4,74,30.13,10.0,Calm,Calm,-,N/A,,Clear,0,2013-01-16 16:15:00
10:35 AM,28.4,19.4,69,30.12,10.0,SSE,3.5,-,N/A,,Clear,160,2013-01-16 16:35:00
10:55 AM,32.0,17.6,55,30.12,10.0,SW,5.8,-,N/A,,Clear,230,2013-01-16 16:55:00
11:15 AM,32.0,17.6,55,30.10,10.0,West,4.6,-,N/A,,Clear,260,2013-01-16 17:15:00
11:35 AM,32.0,19.4,60,30.10,10.0,WSW,5.8,-,N/A,,Clear,240,2013-01-16 17:35:00
11:55 AM,33.8,17.6,52,30.09,10.0,WSW,8.1,-,N/A,,Clear,240,2013-01-16 17:55:00
12:15 PM,35.6,19.4,52,30.08,10.0,WSW,5.8,-,N/A,,Clear,250,2013-01-16 18:15:00
12:35 PM,37.4,19.4,48,30.07,10.0,West,6.9,-,N/A,,Clear,260,2013-01-16 18:35:00
12:55 PM,37.4,19.4,48,30.06,10.0,SW,9.2,-,N/A,,Clear,230,2013-01-16 18:55:00
1:15 PM,39.2,19.4,45,30.05,10.0,West,10.4,16.1,N/A,,Clear,280,2013-01-16 19:15:00
1:35 PM,39.2,19.4,45,30.04,10.0,West,10.4,16.1,N/A,,Clear,280,2013-01-16 19:35:00
2:55 PM,39.2,19.4,45,30.04,10.0,West,6.9,-,N/A,,Clear,270,2013-01-16 20:55:00
3:15 PM,41.0,19.4,42,30.03,10.0,WNW,11.5,17.3,N/A,,Clear,290,2013-01-16 21:15:00
3:35 PM,41.0,19.4,42,30.04,10.0,West,8.1,-,N/A,,Clear,270,2013-01-16 21:35:00
3:55 PM,41.0,19.4,42,30.04,10.0,West,8.1,-,N/A,,Clear,280,2013-01-16 21:55:00
4:15 PM,41.0,21.2,45,30.06,10.0,West,5.8,-,N/A,,Clear,260,2013-01-16 22:15:00
4:35 PM,39.2,21.2,49,30.06,10.0,West,3.5,-,N/A,,Clear,270,2013-01-16 22:35:00
4:55 PM,39.2,21.2,49,30.07,10.0,West,3.5,-,N/A,,Clear,270,2013-01-16 22:55:00
5:15 PM,37.4,21.2,52,30.07,10.0,West,3.5,-,N/A,,Clear,260,2013-01-16 23:15:00
5:35 PM,37.4,21.2,52,30.08,10.0,Calm,Calm,-,N/A,,Clear,0,2013-01-16 23:35:00
5:55 PM,37.4,23.0,56,30.08,10.0,Calm,Calm,-,N/A,,Partly Cloudy,0,2013-01-16 23:55:00
6:55 PM,35.6,23.0,60,30.10,10.0,Calm,Calm,-,N/A,,Scattered Clouds,0,2013-01-17 00:55:00
7:15 PM,35.6,23.0,60,30.11,10.0,Calm,Calm,-,N/A,,Partly Cloudy,0,2013-01-17 01:15:00
7:35 PM,35.6,23.0,60,30.11,10.0,Calm,Calm,-,N/A,,Clear,0,2013-01-17 01:35:00
7:55 PM,35.6,23.0,60,30.11,10.0,NW,3.5,-,N/A,,Clear,310,2013-01-17 01:55:00
8:15 PM,35.6,23.0,60,30.11,10.0,NNW,4.6,-,N/A,,Clear,340,2013-01-17 02:15:00
8:35 PM,35.6,23.0,60,30.11,10.0,North,4.6,-,N/A,,Clear,350,2013-01-17 02:35:00
8:55 PM,35.6,23.0,60,30.11,10.0,North,3.5,-,N/A,,Clear,360,2013-01-17 02:55:00
9:15 PM,32.0,24.8,75,30.12,10.0,Calm,Calm,-,N/A,,Clear,0,2013-01-17 03:15:00
9:35 PM,28.4,24.8,86,30.12,10.0,Calm,Calm,-,N/A,,Clear,0,2013-01-17 03:35:00
9:55 PM,28.4,24.8,86,30.13,10.0,Calm,Calm,-,N/A,,Clear,0,2013-01-17 03:55:00
10:15 PM,28.4,26.6,93,30.12,10.0,Calm,Calm,-,N/A,,Clear,0,2013-01-17 04:15:00
10:35 PM,28.4,23.0,80,30.11,10.0,NNW,4.6,-,N/A,,Clear,340,2013-01-17 04:35:00
10:55 PM,32.0,24.8,75,30.12,10.0,North,4.6,-,N/A,,Clear,350,2013-01-17 04:55:00
11:15 PM,32.0,23.0,69,30.12,10.0,North,3.5,-,N/A,,Clear,350,2013-01-17 05:15:00
11:35 PM,32.0,24.8,75,30.13,10.0,Calm,Calm,-,N/A,,Partly Cloudy,0,2013-01-17 05:35:00
11:55 PM,32.0,24.8,75,30.13,10.0,North,3.5,-,N/A,,Partly Cloudy,350,2013-01-17 05:55:00